TimeCDT,TemperatureF,Dew PointF,Humidity,Sea Level PressureIn,VisibilityMPH,Wind Direction,Wind SpeedMPH,Gust SpeedMPH,PrecipitationIn,Events,Conditions,WindDirDegrees,DateUTC
12:53 AM,55.9,54.0,93,29.88,10.0,Calm,Calm,-,N/A,,Clear,0,2011-10-14 05:53:00
1:53 AM,55.9,54.0,93,29.89,10.0,Calm,Calm,-,N/A,,Clear,0,2011-10-14 06:53:00
2:53 AM,54.0,52.0,93,29.90,10.0,Calm,Calm,-,N/A,,Clear,0,2011-10-14 07:53:00
3:53 AM,54.0,52.0,93,29.91,10.0,Calm,Calm,-,N/A,,Clear,0,2011-10-14 08:53:00
4:53 AM,53.1,51.1,93,29.92,10.0,Calm,Calm,-,N/A,,Clear,0,2011-10-14 09:53:00
5:53 AM,51.1,50.0,96,29.94,10.0,Calm,Calm,-,N/A,,Clear,0,2011-10-14 10:53:00
6:53 AM,51.1,48.9,92,29.95,10.0,Calm,Calm,-,N/A,,Clear,0,2011-10-14 11:53:00
7:53 AM,55.9,53.1,90,29.96,10.0,Calm,Calm,-,N/A,,Clear,0,2011-10-14 12:53:00
8:53 AM,64.9,57.0,75,29.99,10.0,Calm,Calm,-,N/A,,Clear,0,2011-10-14 13:53:00
9:53 AM,73.9,53.1,48,30.00,10.0,Calm,Calm,-,N/A,,Clear,0,2011-10-14 14:53:00
10:53 AM,75.0,48.0,38,30.00,10.0,Variable,5.8,-,N/A,,Clear,0,2011-10-14 15:53:00
11:53 AM,77.0,45.0,32,29.99,10.0,Variable,5.8,-,N/A,,Clear,0,2011-10-14 16:53:00
12:53 PM,79.0,46.0,31,29.97,10.0,Calm,Calm,-,N/A,,Clear,0,2011-10-14 17:53:00
2:53 PM,81.0,46.0,29,29.94,10.0,Variable,3.5,-,N/A,,Clear,0,2011-10-14 19:53:00
3:53 PM,81.0,45.0,28,29.94,10.0,South,3.5,-,N/A,,Clear,170,2011-10-14 20:53:00
4:53 PM,80.1,46.0,30,29.94,10.0,SSE,3.5,-,N/A,,Clear,160,2011-10-14 21:53:00
5:53 PM,77.0,51.1,40,29.96,10.0,Calm,Calm,-,N/A,,Clear,0,2011-10-14 22:53:00
6:53 PM,68.0,57.0,68,29.97,10.0,Calm,Calm,-,N/A,,Clear,0,2011-10-14 23:53:00
7:53 PM,63.0,55.9,78,29.99,10.0,Calm,Calm,-,N/A,,Clear,0,2011-10-15 00:53:00
8:53 PM,61.0,55.0,81,30.00,10.0,Calm,Calm,-,N/A,,Clear,0,2011-10-15 01:53:00
9:53 PM,59.0,54.0,83,30.00,10.0,Calm,Calm,-,N/A,,Clear,0,2011-10-15 02:53:00
10:53 PM,55.9,53.1,90,30.02,10.0,Calm,Calm,-,N/A,,Clear,0,2011-10-15 03:53:00